SCP
-0 -0 0 -0 -0 -0 -0 -0 -0 -0 -0 -0 -0 0 -0 -0 0 -0 -0 -0 -0 -0 -0 0 0 0 0 0 0 0 0 0 0 0 0 0 0 0 0 0 0 0 0
-0 0 0 0 -0 -0 -0 -0 -0 -0 -0 -0 -0 -0 -0 -0 -0 -0 -0 -0 -0 -0 0 0 0 0 0 0 0 0 0 0 0 0 0 0 0 0 0 0 0 0 0
-0 0 0 0 -0 -0 -0 -0 -0 -0 -0 -0 -0 -0 -0 -0 -0 -0 -0 -0 -0 -0 0 0 0 0 0 0 0 0 0 0 0 0 0 0 0 0 0 0 0 0 0
0 0 0 0 0 -0 -0 -0 0 -0 -0 -0 -0 -0 -0 -0 -0 -0 -0 -0 -0 -0 0 0 0 0 0 0 0 0 0 0 0 0 0 0 0 0 0 0 0 0 0
0 0 0 0 0 0 -0 -0 0 0 0 -0 -0 -0 -0 -0 -0 -0 -0 -0 -0 0 0 0 0 0 0 0 0 0 0 0 0 0 0 0 0 0 0 0 0 0 0
0 0 0 0 0 0 0 0 0 0 0 0 -0 -0 -0 -0 -0 -0 -0 -0 0 0 0 0 0 0 0 0 0 0 0 0 0 0 0 0 0 0 0 0 0 0 1
0 0 0 0 0 0 0 0 0 0 0 0 0 0 0 -0 -0 -0 -0 0 0 0 0 0 0 0 0 0 0 0 0 0 0 0 0 0 0 0 0 0 0 0 1
0 0 0 0 0 0 0 0 0 0 0 0 0 0 0 0 0 0 0 0 0 0 0 0 0 0 0 0 0 0 0 0 0 0 0 0 0 0 0 0 0 0 0
0 0 0 0 0 0 0 0 0 0 0 0 0 0 0 0 0 0 0 0 0 0 0 0 0 0 0 0 0 0 0 0 0 0 0 0 0 0 0 0 0 1 1
0 0 0 0 0 0 0 0 0 0 0 0 0 0 0 0 0 0 0 0 0 0 0 0 0 0 0 0 0 0 0 0 0 0 0 0 1 0 0 1 1 1 1
0 0 0 0 0 0 0 0 0 0 0 0 0 0 0 0 0 0 0 0 0 0 0 0 0 0 0 0 0 0 0 0 0 0 0 0 0 0 1 1 1 1 1
0 0 0 0 0 0 0 0 0 0 0 0 0 0 -0 0 0 0 0 0 0 0 0 0 0 0 0 0 0 0 0 0 0 0 0 1 1 1 1 1 2 2 2
0 0 0 0 0 0 0 0 0 0 0 0 0 0 0 0 0 0 0 0 0 0 0 0 0 0 0 0 0 0 0 0 0 0 0 1 1 1 1 1 2 2 1
0 0 0 0 0 0 0 0 0 0 0 0 0 0 0 0 0 0 0 0 0 0 0 0 0 0 0 0 0 0 0 0 0 0 0 1 1 2 1 1 1 1 1
0 0 0 0 0 1 0 0 0 0 0 0 0 0 0 0 0 0 0 0 0 0 0 0 0 0 0 0 0 0 0 0 0 0 0 2 2 1 0 0 0 0 0
1 1 0 0 0 0 0 1 0 0 0 0 0 0 0 0 0 0 0 0 0 0 0 0 2 1 1 1 1 1 0 0 0 0 0 1 1 0 0 0 0 0 0
2 1 1 1 0 0 0 0 0 0 0 0 0 0 0 0 0 0 0 0 0 1 1 1 1 1 1 1 1 0 1 0 0 1 1 0 0 1 1 0 0 0 0
3 2 1 1 0 0 1 0 0 0 0 0 0 0 0 0 0 1 1 1 1 1 1 1 1 1 1 2 3 1 0 0 0 0 1 1 1 1 0 0 0 0 0
3 2 1 1 0 0 1 0 0 1 0 0 0 0 0 0 0 1 1 1 1 1 1 1 1 0 0 0 0 -0 -0 -0 1 1 1 1 0 0 0 0 0 0 0
2 2 1 1 1 1 1 1 1 0 0 0 0 0 0 0 0 1 1 1 1 0 0 0 0 0 0 0 -0 0 0 0 1 0 0 0 0 0 0 0 0 0 0
1 1 1 0 0 1 1 0 0 0 0 0 1 0 1 1 1 1 1 0 0 0 0 0 0 0 0 0 0 0 0 1 1 0 0 0 0 0 0 0 0 0 0
1 1 0 0 0 1 0 0 0 0 1 0 1 1 1 1 1 1 1 0 0 0 0 0 0 0 0 0 0 0 0 0 0 0 0 0 0 0 0 0 0 0 0
1 0 0 0 1 0 0 1 2 2 1 1 1 1 0 0 0 0 0 0 0 0 0 0 0 0 0 0 0 0 0 0 0 0 0 0 0 0 0 0 0 0 0
1 0 0 0 0 0 1 1 1 1 0 1 1 0 0 0 0 0 0 0 0 0 0 0 0 0 0 0 0 0 0 0 0 0 0 0 0 0 0 0 0 0 0
0 0 0 0 0 0 0 1 0 0 1 1 0 0 0 0 0 0 -0 -0 0 0 0 0 0 0 0 0 0 0 0 0 0 0 0 0 0 0 0 0 0 0 0
0 0 0 0 -0 0 0 1 0 1 1 0 0 0 0 0 0 -0 -0 0 0 0 0 0 0 0 0 0 0 0 0 0 0 0 0 0 0 0 0 0 0 0 0
Wind_Speed_500mb
39 56 52 48 45 41 37 38 37 32 30 29 29 30 27 27 28 27 26 22 18 14 13 13 13 13 12 11 11 11 12 12 11 13 16 18 22 21 19 18 17 17 20
45 57 53 48 44 39 36 40 39 34 31 29 27 27 25 26 27 23 22 19 14 11 10 10 10 11 10 9 9 8 7 7 9 12 20 15 22 28 23 18 17 11 15
44 57 53 48 42 38 35 41 42 37 33 28 26 25 23 22 22 19 19 16 13 9 8 8 7 7 7 7 5 1 4 8 10 12 18 26 23 32 32 25 21 19 20
44 56 54 49 42 37 36 43 42 38 33 27 24 22 21 21 20 18 18 14 10 9 8 7 5 5 4 2 2 6 9 12 14 16 19 20 17 27 33 29 28 27 25
45 49 53 47 40 36 39 44 43 39 32 25 22 21 20 19 19 17 15 12 11 9 8 6 4 3 4 4 8 13 15 18 19 17 20 22 19 29 35 33 32 29 28
44 47 52 46 39 37 40 43 42 36 29 24 22 22 20 18 18 16 15 13 12 9 6 3 1 5 8 12 16 19 22 24 25 24 26 26 28 31 40 40 34 31 32
45 43 51 44 39 37 40 41 39 34 29 24 24 23 19 18 17 16 14 12 9 5 1 5 8 11 15 19 22 25 28 30 32 28 25 29 27 38 40 35 33 32 31
45 42 51 45 41 38 39 40 37 33 28 27 25 21 18 17 15 13 12 9 5 4 6 11 15 18 22 26 28 31 34 36 36 30 29 29 34 41 39 35 33 34 36
43 44 53 46 44 39 36 36 35 32 30 27 24 19 17 15 12 10 8 6 6 9 12 15 20 24 27 29 31 32 34 36 36 36 23 30 38 38 45 41 39 39 42
44 44 51 48 44 40 38 37 35 33 30 26 22 18 14 10 9 6 5 5 7 11 14 16 19 23 26 29 31 35 39 41 32 32 31 32 36 44 50 44 41 40 40
45 44 45 44 41 38 39 42 37 33 30 26 22 18 11 7 5 2 2 4 7 10 12 15 20 24 28 31 35 41 46 29 26 32 34 39 40 46 51 45 42 45 46
50 47 46 45 45 41 36 41 35 33 28 22 19 18 16 15 14 16 5 4 8 10 12 22 23 30 28 30 27 37 40 35 35 34 35 41 44 52 53 49 47 46 46
51 50 48 48 46 41 37 40 30 26 22 20 20 19 17 12 6 4 7 10 11 19 13 19 22 25 23 28 30 30 32 36 37 36 36 47 52 53 56 53 49 47 49
54 51 50 49 51 42 35 35 28 26 23 21 20 21 17 14 15 19 10 10 8 5 12 12 15 22 24 29 28 31 33 36 37 39 37 46 54 58 54 53 51 49 50
53 53 51 47 46 45 40 35 30 26 23 20 21 18 15 15 16 12 13 8 10 7 6 8 12 18 21 24 27 30 32 34 35 39 40 48 50 51 48 50 46 43 42
53 54 52 46 48 43 36 38 33 27 23 20 17 16 19 13 18 13 9 8 10 9 11 6 18 13 13 19 26 24 33 36 34 42 42 42 45 41 43 45 44 43 43
55 55 54 48 46 45 39 36 30 25 21 20 18 20 17 19 17 20 12 10 10 11 6 20 19 22 13 13 26 34 39 45 42 45 41 36 36 39 39 41 47 46 48
57 60 56 46 47 45 42 37 27 26 22 21 18 16 18 20 20 18 11 17 18 13 13 19 23 22 20 19 23 49 46 35 36 34 22 28 30 26 38 47 57 49 42
56 59 53 48 46 44 34 31 29 31 24 21 19 17 19 18 21 19 17 14 14 12 13 22 30 33 25 30 37 34 31 27 23 24 28 26 27 30 35 42 44 33 42
59 56 53 50 49 53 38 38 31 26 25 21 21 19 19 16 18 15 16 18 13 10 23 43 39 22 23 31 43 39 37 24 20 25 23 24 32 37 31 34 32 30 34
57 54 51 46 44 49 44 40 34 31 29 23 24 18 16 14 13 12 4 13 23 19 29 33 29 28 26 36 33 36 27 13 18 24 16 21 36 36 30 32 33 33 36
64 55 49 46 52 47 44 40 35 33 32 23 20 22 22 25 21 17 16 19 32 26 28 26 25 21 20 27 27 26 19 21 15 23 22 25 39 31 29 28 31 34 35
59 58 54 53 54 46 44 43 46 45 29 27 21 14 20 13 19 19 27 33 26 11 13 13 14 19 18 20 24 18 16 16 37 16 25 25 44 33 34 28 33 37 38
59 56 56 55 54 48 50 38 46 34 26 23 28 24 16 8 3 3 2 5 4 5 8 13 15 18 19 22 16 18 14 13 13 24 31 32 36 29 34 33 33 42 44
64 58 58 58 55 49 43 36 32 26 23 25 31 25 8 7 5 8 9 6 5 7 10 15 17 18 21 17 15 16 18 9 18 24 32 41 38 32 30 30 39 37 46
64 59 51 58 55 47 38 33 30 23 34 28 17 14 13 11 12 10 5 8 12 14 16 18 20 19 17 13 15 18 18 18 20 25 29 35 39 33 33 27 45 41 51
Wind_Direction_500mb
159 166 161 157 160 165 167 171 167 157 150 140 134 132 134 135 136 142 142 135 127 113 110 108 110 110 106 104 101 101 92 75 56 40 32 30 19 13 12 10 20 5 305
162 168 162 160 160 164 166 172 170 161 156 148 139 133 137 142 144 146 150 149 140 133 122 119 115 118 116 114 110 99 76 39 20 17 20 11 359 347 347 351 359 348 332
161 168 162 162 161 162 165 173 171 165 161 153 143 137 142 148 153 156 158 153 150 146 135 130 130 128 122 129 135 55 9 357 4 10 24 14 300 323 323 324 327 332 333
159 165 165 163 162 163 164 174 171 169 165 155 148 145 151 154 154 160 166 161 155 149 147 142 141 128 143 189 273 319 323 329 338 349 9 320 311 305 310 319 316 316 316
156 158 167 162 164 164 167 174 172 173 168 159 155 153 154 153 156 162 162 156 148 153 146 136 126 180 232 264 290 302 309 313 318 327 343 307 297 296 299 312 310 311 311
156 157 163 161 164 166 172 177 175 174 170 168 165 158 153 153 155 153 152 150 152 153 149 152 252 291 295 295 298 304 307 308 310 316 306 296 303 282 289 299 298 298 304
157 163 164 163 163 169 174 179 179 177 178 176 169 160 156 154 151 148 148 153 158 164 266 309 308 298 294 294 298 302 303 305 306 303 298 295 293 282 298 304 301 296 298
160 163 164 165 164 169 175 179 182 181 181 174 170 163 160 157 157 157 161 169 187 245 283 294 295 297 299 300 302 303 303 304 306 301 295 295 286 288 306 311 306 300 299
163 158 165 166 165 168 176 179 181 182 177 172 171 166 163 163 165 169 185 209 246 271 279 289 299 302 301 303 305 306 306 307 310 316 304 298 285 292 308 310 307 304 304
165 163 162 167 164 166 170 176 177 175 173 171 172 168 162 162 168 171 192 227 268 279 293 303 304 306 308 311 316 320 321 316 320 327 305 294 285 291 306 314 312 307 304
165 166 161 160 160 158 164 170 170 172 172 170 169 164 147 127 145 47 207 279 294 307 313 321 322 321 324 328 337 330 332 342 318 308 306 291 295 298 305 309 309 305 305
170 167 168 164 161 159 157 165 168 172 171 164 166 156 120 170 170 177 258 312 312 318 333 342 336 343 347 340 319 323 330 315 311 309 308 299 302 303 308 309 307 305 302
175 171 170 169 159 160 166 154 166 169 169 172 173 154 172 178 190 142 267 337 3 332 2 331 330 335 313 320 319 316 314 316 314 312 307 304 306 306 307 307 305 303 301
174 172 170 172 165 163 168 154 167 166 175 179 181 175 195 164 221 188 211 225 314 291 302 330 329 322 323 317 322 320 317 317 312 310 309 308 305 306 309 311 308 307 306
174 174 174 175 170 168 161 163 166 172 170 175 182 176 193 183 203 208 223 219 238 264 302 308 326 308 318 323 320 313 314 318 320 315 310 304 312 310 316 322 317 315 313
174 172 173 173 173 174 163 168 167 167 172 174 177 196 191 179 221 206 234 225 234 236 254 273 253 260 285 319 323 318 318 316 331 314 306 312 316 320 329 320 321 321 317
178 177 174 175 176 176 169 165 165 170 181 182 188 199 183 178 220 182 207 205 216 236 263 275 284 296 283 302 333 336 325 320 320 315 313 303 324 334 333 324 319 315 313
171 174 174 175 183 172 182 165 164 183 180 191 196 204 190 195 185 170 193 207 230 243 280 305 306 293 307 332 321 332 335 332 324 327 335 323 307 335 339 326 308 327 324
181 179 173 175 177 171 176 167 167 191 180 189 190 195 185 186 195 192 209 231 261 280 302 312 314 320 319 326 348 341 330 325 328 321 347 337 330 316 331 311 326 356 331
179 176 168 176 183 162 169 168 175 174 180 182 183 196 198 202 212 236 239 265 272 290 292 304 301 305 334 330 335 341 345 342 293 301 335 331 316 328 335 338 355 338 322
172 170 169 171 172 165 163 171 173 174 175 181 183 180 190 200 209 220 211 242 243 277 306 312 305 302 340 346 351 339 338 338 311 342 317 339 326 344 344 348 343 341 337
170 170 164 170 166 165 166 171 173 172 184 169 167 170 179 208 208 222 236 276 272 293 308 313 317 335 20 15 6 346 338 324 329 348 346 341 331 350 344 346 341 349 335
169 167 166 168 164 158 165 174 170 179 184 171 178 189 227 242 242 270 279 274 291 303 314 321 352 355 24 28 23 14 343 344 328 323 348 348 349 347 344 344 341 347 340
170 167 163 163 156 162 166 177 185 176 178 190 174 216 226 214 269 266 310 1 77 63 12 358 4 13 12 29 26 6 6 338 349 335 346 344 347 352 339 349 339 345 341
172 162 165 161 157 169 160 174 172 174 174 152 197 216 194 174 150 136 121 87 53 32 23 17 10 10 4 36 21 23 17 23 346 342 330 343 347 350 347 346 342 346 345
163 150 162 159 163 163 165 175 167 170 180 198 181 152 139 144 137 121 91 56 49 37 25 15 1 357 23 46 66 45 33 24 1 348 339 342 344 348 341 345 349 346 342
Wind_Speed_850mb
39 56 52 48 45 41 37 38 37 32 30 29 29 30 27 27 28 27 26 22 18 14 13 13 13 13 12 11 11 11 12 12 11 13 16 18 22 21 19 18 17 17 20
45 57 53 48 44 39 36 40 39 34 31 29 27 27 25 26 27 23 22 19 14 11 10 10 10 11 10 9 9 8 7 7 9 12 20 15 22 28 23 18 17 11 15
44 57 53 48 42 38 35 41 42 37 33 28 26 25 23 22 22 19 19 16 13 9 8 8 7 7 7 7 5 1 4 8 10 12 18 26 23 32 32 25 21 19 20
44 56 54 49 42 37 36 43 42 38 33 27 24 22 21 21 20 18 18 14 10 9 8 7 5 5 4 2 2 6 9 12 14 16 19 20 17 27 33 29 28 27 25
45 49 53 47 40 36 39 44 43 39 32 25 22 21 20 19 19 17 15 12 11 9 8 6 4 3 4 4 8 13 15 18 19 17 20 22 19 29 35 33 32 29 28
44 47 52 46 39 37 40 43 42 36 29 24 22 22 20 18 18 16 15 13 12 9 6 3 1 5 8 12 16 19 22 24 25 24 26 26 28 31 40 40 34 31 32
45 43 51 44 39 37 40 41 39 34 29 24 24 23 19 18 17 16 14 12 9 5 1 5 8 11 15 19 22 25 28 30 32 28 25 29 27 38 40 35 33 32 31
45 42 51 45 41 38 39 40 37 33 28 27 25 21 18 17 15 13 12 9 5 4 6 11 15 18 22 26 28 31 34 36 36 30 29 29 34 41 39 35 33 34 36
43 44 53 46 44 39 36 36 35 32 30 27 24 19 17 15 12 10 8 6 6 9 12 15 20 24 27 29 31 32 34 36 36 36 23 30 38 38 45 41 39 39 42
44 44 51 48 44 40 38 37 35 33 30 26 22 18 14 10 9 6 5 5 7 11 14 16 19 23 26 29 31 35 39 41 32 32 31 32 36 44 50 44 41 40 40
45 44 45 44 41 38 39 42 37 33 30 26 22 18 11 7 5 2 2 4 7 10 12 15 20 24 28 31 35 41 46 29 26 32 34 39 40 46 51 45 42 45 46
50 47 46 45 45 41 36 41 35 33 28 22 19 18 16 15 14 16 5 4 8 10 12 22 23 30 28 30 27 37 40 35 35 34 35 41 44 52 53 49 47 46 46
51 50 48 48 46 41 37 40 30 26 22 20 20 19 17 12 6 4 7 10 11 19 13 19 22 25 23 28 30 30 32 36 37 36 36 47 52 53 56 53 49 47 49
54 51 50 49 51 42 35 35 28 26 23 21 20 21 17 14 15 19 10 10 8 5 12 12 15 22 24 29 28 31 33 36 37 39 37 46 54 58 54 53 51 49 50
53 53 51 47 46 45 40 35 30 26 23 20 21 18 15 15 16 12 13 8 10 7 6 8 12 18 21 24 27 30 32 34 35 39 40 48 50 51 48 50 46 43 42
53 54 52 46 48 43 36 38 33 27 23 20 17 16 19 13 18 13 9 8 10 9 11 6 18 13 13 19 26 24 33 36 34 42 42 42 45 41 43 45 44 43 43
55 55 54 48 46 45 39 36 30 25 21 20 18 20 17 19 17 20 12 10 10 11 6 20 19 22 13 13 26 34 39 45 42 45 41 36 36 39 39 41 47 46 48
57 60 56 46 47 45 42 37 27 26 22 21 18 16 18 20 20 18 11 17 18 13 13 19 23 22 20 19 23 49 46 35 36 34 22 28 30 26 38 47 57 49 42
56 59 53 48 46 44 34 31 29 31 24 21 19 17 19 18 21 19 17 14 14 12 13 22 30 33 25 30 37 34 31 27 23 24 28 26 27 30 35 42 44 33 42
59 56 53 50 49 53 38 38 31 26 25 21 21 19 19 16 18 15 16 18 13 10 23 43 39 22 23 31 43 39 37 24 20 25 23 24 32 37 31 34 32 30 34
57 54 51 46 44 49 44 40 34 31 29 23 24 18 16 14 13 12 4 13 23 19 29 33 29 28 26 36 33 36 27 13 18 24 16 21 36 36 30 32 33 33 36
64 55 49 46 52 47 44 40 35 33 32 23 20 22 22 25 21 17 16 19 32 26 28 26 25 21 20 27 27 26 19 21 15 23 22 25 39 31 29 28 31 34 35
59 58 54 53 54 46 44 43 46 45 29 27 21 14 20 13 19 19 27 33 26 11 13 13 14 19 18 20 24 18 16 16 37 16 25 25 44 33 34 28 33 37 38
59 56 56 55 54 48 50 38 46 34 26 23 28 24 16 8 3 3 2 5 4 5 8 13 15 18 19 22 16 18 14 13 13 24 31 32 36 29 34 33 33 42 44
64 58 58 58 55 49 43 36 32 26 23 25 31 25 8 7 5 8 9 6 5 7 10 15 17 18 21 17 15 16 18 9 18 24 32 41 38 32 30 30 39 37 46
64 59 51 58 55 47 38 33 30 23 34 28 17 14 13 11 12 10 5 8 12 14 16 18 20 19 17 13 15 18 18 18 20 25 29 35 39 33 33 27 45 41 51
Wind_Direction_850mb
159 166 161 157 160 165 167 171 167 157 150 140 134 132 134 135 136 142 142 135 127 113 110 108 110 110 106 104 101 101 92 75 56 40 32 30 19 13 12 10 20 5 305
162 168 162 160 160 164 166 172 170 161 156 148 139 133 137 142 144 146 150 149 140 133 122 119 115 118 116 114 110 99 76 39 20 17 20 11 359 347 347 351 359 348 332
161 168 162 162 161 162 165 173 171 165 161 153 143 137 142 148 153 156 158 153 150 146 135 130 130 128 122 129 135 55 9 357 4 10 24 14 300 323 323 324 327 332 333
159 165 165 163 162 163 164 174 171 169 165 155 148 145 151 154 154 160 166 161 155 149 147 142 141 128 143 189 273 319 323 329 338 349 9 320 311 305 310 319 316 316 316
156 158 167 162 164 164 167 174 172 173 168 159 155 153 154 153 156 162 162 156 148 153 146 136 126 180 232 264 290 302 309 313 318 327 343 307 297 296 299 312 310 311 311
156 157 163 161 164 166 172 177 175 174 170 168 165 158 153 153 155 153 152 150 152 153 149 152 252 291 295 295 298 304 307 308 310 316 306 296 303 282 289 299 298 298 304
157 163 164 163 163 169 174 179 179 177 178 176 169 160 156 154 151 148 148 153 158 164 266 309 308 298 294 294 298 302 303 305 306 303 298 295 293 282 298 304 301 296 298
160 163 164 165 164 169 175 179 182 181 181 174 170 163 160 157 157 157 161 169 187 245 283 294 295 297 299 300 302 303 303 304 306 301 295 295 286 288 306 311 306 300 299
163 158 165 166 165 168 176 179 181 182 177 172 171 166 163 163 165 169 185 209 246 271 279 289 299 302 301 303 305 306 306 307 310 316 304 298 285 292 308 310 307 304 304
165 163 162 167 164 166 170 176 177 175 173 171 172 168 162 162 168 171 192 227 268 279 293 303 304 306 308 311 316 320 321 316 320 327 305 294 285 291 306 314 312 307 304
165 166 161 160 160 158 164 170 170 172 172 170 169 164 147 127 145 47 207 279 294 307 313 321 322 321 324 328 337 330 332 342 318 308 306 291 295 298 305 309 309 305 305
170 167 168 164 161 159 157 165 168 172 171 164 166 156 120 170 170 177 258 312 312 318 333 342 336 343 347 340 319 323 330 315 311 309 308 299 302 303 308 309 307 305 302
175 171 170 169 159 160 166 154 166 169 169 172 173 154 172 178 190 142 267 337 3 332 2 331 330 335 313 320 319 316 314 316 314 312 307 304 306 306 307 307 305 303 301
174 172 170 172 165 163 168 154 167 166 175 179 181 175 195 164 221 188 211 225 314 291 302 330 329 322 323 317 322 320 317 317 312 310 309 308 305 306 309 311 308 307 306
174 174 174 175 170 168 161 163 166 172 170 175 182 176 193 183 203 208 223 219 238 264 302 308 326 308 318 323 320 313 314 318 320 315 310 304 312 310 316 322 317 315 313
174 172 173 173 173 174 163 168 167 167 172 174 177 196 191 179 221 206 234 225 234 236 254 273 253 260 285 319 323 318 318 316 331 314 306 312 316 320 329 320 321 321 317
178 177 174 175 176 176 169 165 165 170 181 182 188 199 183 178 220 182 207 205 216 236 263 275 284 296 283 302 333 336 325 320 320 315 313 303 324 334 333 324 319 315 313
171 174 174 175 183 172 182 165 164 183 180 191 196 204 190 195 185 170 193 207 230 243 280 305 306 293 307 332 321 332 335 332 324 327 335 323 307 335 339 326 308 327 324
181 179 173 175 177 171 176 167 167 191 180 189 190 195 185 186 195 192 209 231 261 280 302 312 314 320 319 326 348 341 330 325 328 321 347 337 330 316 331 311 326 356 331
179 176 168 176 183 162 169 168 175 174 180 182 183 196 198 202 212 236 239 265 272 290 292 304 301 305 334 330 335 341 345 342 293 301 335 331 316 328 335 338 355 338 322
172 170 169 171 172 165 163 171 173 174 175 181 183 180 190 200 209 220 211 242 243 277 306 312 305 302 340 346 351 339 338 338 311 342 317 339 326 344 344 348 343 341 337
170 170 164 170 166 165 166 171 173 172 184 169 167 170 179 208 208 222 236 276 272 293 308 313 317 335 20 15 6 346 338 324 329 348 346 341 331 350 344 346 341 349 335
169 167 166 168 164 158 165 174 170 179 184 171 178 189 227 242 242 270 279 274 291 303 314 321 352 355 24 28 23 14 343 344 328 323 348 348 349 347 344 344 341 347 340
170 167 163 163 156 162 166 177 185 176 178 190 174 216 226 214 269 266 310 1 77 63 12 358 4 13 12 29 26 6 6 338 349 335 346 344 347 352 339 349 339 345 341
172 162 165 161 157 169 160 174 172 174 174 152 197 216 194 174 150 136 121 87 53 32 23 17 10 10 4 36 21 23 17 23 346 342 330 343 347 350 347 346 342 346 345
163 150 162 159 163 163 165 175 167 170 180 198 181 152 139 144 137 121 91 56 49 37 25 15 1 357 23 46 66 45 33 24 1 348 339 342 344 348 341 345 349 346 342